This demonstration page uses our WeatherBlox Daily Observations layout. Learn more.

Left ArrowRight Arrow

Hourly Observations for September 21, 2020

Temp ( °F °C ) Dew Point ( °F °C ) Humidity (%) Winds ( mph kmh ) Pressure ( in mb ) Visibility ( mi km ) Precip ( " mm )
12:54 am 00:54 Clear 56 13.3 50 10 81 81 S 8 13 30.15 1021 9 14.48406 0 0
1:54 am 01:54 Clear 56 13.3 51 10.6 84 84 S 8 13 30.15 1021 9 14.48406 0 0
2:54 am 02:54 Clear 56 13.3 50 10 81 81 SSE 9 15 30.15 1021 9 14.48406 0 0
3:54 am 03:54 Clear 54 12.2 49 9.4 83 83 S 8 13 30.16 1021 9 14.48406 0 0
4:54 am 04:54 Clear 52 11.1 49 9.4 89 89 SSE 8 13 30.17 1022 9 14.48406 0 0
5:54 am 05:54 Clear 51 10.6 47 8.3 86 86 S 7 11 30.16 1022 9 14.48406 0 0
6:54 am 06:54 Clear 52 11.1 48 8.9 86 86 SSE 6 9 30.18 1022 9 14.48406 0 0
7:54 am 07:54 Sunny 53 11.7 49 9.4 86 86 SSE 8 13 30.19 1022 8 12.87472 0 0
8:54 am 08:54 Sunny 59 15 54 12.2 83 83 S 7 11 30.18 1022 8 12.87472 0 0
9:54 am 09:54 Sunny 67 19.4 57 13.9 71 71 SSW 15 24 30.17 1022 8 12.87472 0 0
10:54 am 10:54 Sunny 72 22.2 57 13.9 59 59 SSW 16 26 30.17 1022 8 12.87472 0 0
11:54 am 11:54 Sunny 75 23.9 55 12.8 50 50 SW 10 17 30.19 1022 8 12.87472 0 0
12:54 pm 12:54 Sunny 78 25.6 55 12.8 45 45 SSW 12 19 30.17 1022 8 12.87472 0 0
1:54 pm 13:54 Sunny 81 27.2 55 12.8 41 41 S 8 13 30.14 1021 9 14.48406 0 0
2:54 pm 14:54 Sunny 83 28.3 53 11.7 36 36 SSE 14 22 30.11 1020 9 14.48406 0 0
3:54 pm 15:54 Sunny 83 28.3 52 11.1 34 34 S 15 24 30.09 1019 9 14.48406 0 0
4:54 pm 16:54 Sunny 83 28.3 53 11.7 36 36 S 15 24 30.07 1018 9 14.48406 0 0
5:54 pm 17:54 Sunny 81 27.2 53 11.7 38 38 S 16 26 30.07 1018 9 14.48406 0 0
6:54 pm 18:54 Sunny 75 23.9 55 12.8 50 50 S 9 15 30.09 1019 8 12.87472 0 0
7:54 pm 19:54 Clear 71 21.7 55 12.8 57 57 S 9 15 30.1 1019 10 16.0934 0 0
8:54 pm 20:54 Clear 67 19.4 55 12.8 66 66 SSE 8 13 30.11 1020 9 14.48406 0 0
9:54 pm 21:54 Clear 63 17.2 55 12.8 76 76 SSE 8 13 30.11 1020 9 14.48406 0 0
10:54 pm 22:54 Clear 62 16.7 54 12.2 75 75 SSE 9 15 30.12 1020 9 14.48406 0 0
11:54 pm 23:54 Clear 59 15 53 11.7 81 81 S 7 11 30.12 1020 9 14.48406 0 0

Powered by AerisWeather